FW8060 Weather Reports


Display with metric or nautical units.
time (UTC)temp
F
wind
direction
speed
MPH
gust
MPH
rain 1hr
in
rain 24hr
in
rain mn
in
humidity
%
barometer
mb
20260508062034 55 71 0.0 1.0 0.00 0.00 0.00 78 1016.7
20260508061026 54 71 0.0 1.0 0.00 0.00 0.00 79 1016.6
20260508060032 54 71 0.0 2.0 0.00 0.00 0.00 81 1016.7
20260508055746 53 71 0.0 2.0 0.00 0.00 0.00 83 1016.6
20260508055227 52 71 0.0 2.0 0.00 0.00 0.00 84 1016.6
20260508055030 53 71 0.0 2.0 0.00 0.00 0.00 82 1016.6
20260508052022 52 71 1.0 2.0 0.00 0.00 0.00 85 1016.4
20260508051012 52 71 1.0 3.0 0.00 0.00 0.00 85 1016.3
20260508050012 52 71 1.0 3.0 0.00 0.00 0.00 85 1016.2
20260508045011 51 71 1.0 3.0 0.00 0.00 0.00 86 1016.2
20260508044009 51 71 1.0 2.0 0.00 0.00 0.00 86 1016.2
20260508043340 52 71 1.0 2.0 0.00 0.00 0.00 85 1016.3
20260508043015 52 71 0.0 2.0 0.00 0.00 0.00 86 1016.2
20260508041015 51 101 0.0 1.0 0.00 0.00 0.00 86 1016.2
20260508040016 51 101 0.0 1.0 0.00 0.00 0.00 87 1016.1
20260508035011 51 101 0.0 1.0 0.00 0.00 0.00 87 1016.1
20260508034702 51 49 0.0 2.0 0.00 0.00 0.00 88 1016.1
20260508034602 51 146 0.0 1.0 0.00 0.00 0.00 88 1016.1
20260508034128 51 30 0.0 2.0 0.00 0.00 0.00 88 1016.1
20260508031010 51 49 0.0 2.0 0.00 0.00 0.00 88 1016.1
20260508030853 51 49 0.0 1.0 0.00 0.00 0.00 88 1016.0
20260508025005 51 49 0.0 1.0 0.00 0.00 0.00 88 1016.1
20260508024047 51 49 0.0 0.0 0.00 0.00 0.00 89 1016.0
20260508024004 51 49 0.0 1.0 0.00 0.00 0.00 89 1016.0
20260508023916 51 49 0.0 2.0 0.00 0.00 0.00 89 1016.1
20260508021008 51 49 0.0 2.0 0.00 0.00 0.00 89 1016.2
20260508020650 51 49 1.0 2.0 0.00 0.00 0.00 89 1016.0
20260508020608 51 49 0.0 2.0 0.00 0.00 0.00 88 1016.1
20260508020017 51 49 0.0 1.0 0.00 0.00 0.00 89 1016.1
20260508013008 51 49 0.0 2.0 0.00 0.00 0.00 88 1016.1
20260508012010 51 49 0.0 2.0 0.00 0.00 0.00 87 1016.1
20260508011008 51 49 0.0 1.0 0.00 0.00 0.00 87 1016.1
20260508010255 52 49 1.0 2.0 0.00 0.00 0.00 87 1016.2
20260508010029 52 49 1.0 2.0 0.00 0.00 0.00 87 1016.1
20260508004851 52 49 1.0 2.0 0.00 0.00 0.00 85 1016.4
20260508004757 52 49 1.0 2.0 0.00 0.00 0.00 85 1016.4
20260508004637 52 49 1.0 2.0 0.00 0.00 0.00 86 1016.4
20260508004033 52 49 1.0 3.0 0.00 0.00 0.00 86 1016.3
20260508002031 52 49 0.0 2.0 0.00 0.00 0.00 86 1016.4
20260508001007 52 49 0.0 2.0 0.00 0.00 0.00 86 1016.3
20260507234953 52 49 1.0 2.0 0.00 0.00 0.00 84 1016.6
20260507233007 52 49 1.0 3.0 0.00 0.00 0.00 84 1016.6
20260507231959 52 49 0.0 2.0 0.00 0.00 0.00 85 1016.6
20260507230954 52 49 0.0 2.0 0.00 0.00 0.00 84 1016.6
20260507225952 52 49 0.0 2.0 0.00 0.00 0.00 84 1016.7
20260507224955 52 49 0.0 2.0 0.00 0.00 0.00 84 1016.7
20260507223954 52 49 0.0 1.0 0.00 0.00 0.00 83 1016.7
20260507223722 52 49 0.0 1.0 0.00 0.00 0.00 83 1016.8
20260507223028 52 49 0.0 1.0 0.00 0.00 0.00 83 1016.7
20260507220947 53 49 0.0 1.0 0.00 0.00 0.00 83 1016.8
20260507215946 53 49 0.0 2.0 0.00 0.00 0.00 82 1016.8
20260507214943 53 94 0.0 2.0 0.00 0.00 0.00 82 1016.8
20260507213957 53 94 0.0 1.0 0.00 0.00 0.00 82 1016.8
20260507213019 53 94 0.0 1.0 0.00 0.00 0.00 82 1016.8
20260507212945 53 94 0.0 1.0 0.00 0.00 0.00 82 1016.8
20260507210944 53 94 0.0 1.0 0.00 0.00 0.00 81 1016.7
20260507205937 53 94 0.0 1.0 0.00 0.00 0.00 81 1016.7
20260507205007 53 94 0.0 1.0 0.00 0.00 0.00 81 1016.7
20260507203938 53 94 0.0 0.0 0.00 0.00 0.00 80 1016.7
20260507202941 53 94 0.0 0.0 0.00 0.00 0.00 80 1016.7
20260507201945 53 94 0.0 1.0 0.00 0.00 0.00 80 1016.6
20260507200942 53 94 0.0 1.0 0.00 0.00 0.00 80 1016.4
20260507195940 53 94 0.0 1.0 0.00 0.00 0.00 80 1016.4
20260507194945 53 94 0.0 1.0 0.00 0.00 0.00 80 1016.1
20260507193935 53 94 0.0 1.0 0.00 0.00 0.00 79 1016.0
20260507192932 53 34 0.0 1.0 0.00 0.00 0.00 79 1016.0
20260507192033 54 34 0.0 1.0 0.00 0.00 0.00 79 1015.9
20260507191935 54 34 0.0 1.0 0.00 0.00 0.00 79 1015.9
20260507191144 54 34 0.0 1.0 0.00 0.00 0.00 79 1016.0
20260507184931 54 39 0.0 2.0 0.00 0.00 0.00 78 1015.9
20260507183932 54 85 0.0 1.0 0.00 0.00 0.00 78 1015.9
20260507182934 55 30 0.0 0.0 0.00 0.00 0.00 78 1015.7
20260507181931 55 30 0.0 2.0 0.00 0.00 0.00 77 1015.8
20260507180932 55 30 0.0 3.0 0.00 0.00 0.00 77 1015.8
20260507180247 55 15 1.0 4.0 0.00 0.00 0.00 76 1015.8
20260507175936 55 30 1.0 3.0 0.00 0.00 0.00 77 1015.9
20260507174855 55 5 1.0 6.0 0.00 0.00 0.00 75 1015.9
20260507172929 55 340 2.0 4.0 0.00 0.00 0.00 75 1015.9
20260507171941 55 350 2.0 6.0 0.00 0.00 0.00 74 1015.9
20260507170927 55 337 2.0 6.0 0.00 0.00 0.00 75 1015.9
20260507165932 55 5 3.0 6.0 0.00 0.00 0.00 75 1015.9
20260507164938 56 336 3.0 6.0 0.00 0.00 0.00 75 1015.8
20260507163923 56 340 3.0 5.0 0.00 0.00 0.00 74 1015.9
20260507162927 56 331 2.0 5.0 0.00 0.00 0.00 74 1015.8
20260507162426 56 331 2.0 5.0 0.00 0.00 0.00 74 1015.9
20260507160931 56 338 1.0 5.0 0.00 0.00 0.00 73 1015.9
20260507155926 56 15 2.0 6.0 0.00 0.00 0.00 73 1015.9
20260507154928 56 343 2.0 6.0 0.00 0.00 0.00 72 1016.0
20260507153942 56 5 2.0 6.0 0.00 0.00 0.00 72 1016.0
20260507152915 56 355 2.0 6.0 0.00 0.00 0.00 71 1016.0
20260507151915 56 336 2.0 6.0 0.00 0.00 0.00 71 1015.9
20260507150918 56 333 3.0 6.0 0.00 0.00 0.00 70 1015.9
20260507145916 57 323 3.0 9.0 0.00 0.00 0.00 70 1015.9
20260507144912 57 332 2.0 5.0 0.00 0.00 0.00 70 1015.9
20260507143917 57 351 3.0 8.0 0.00 0.00 0.00 68 1015.9
20260507142915 57 328 2.0 5.0 0.00 0.00 0.00 68 1015.9
20260507141922 57 12 1.0 6.0 0.00 0.00 0.00 66 1015.8
20260507140918 58 323 2.0 6.0 0.00 0.00 0.00 66 1015.9
20260507135914 58 17 1.0 4.0 0.00 0.00 0.00 65 1016.0
20260507134915 58 338 0.0 2.0 0.00 0.00 0.00 64 1016.0
20260507133914 58 325 1.0 4.0 0.00 0.00 0.00 64 1016.0
20260507132915 58 321 1.0 4.0 0.00 0.00 0.00 64 1016.0
20260507131917 58 30 1.0 3.0 0.00 0.00 0.00 63 1015.9
20260507130910 58 12 1.0 3.0 0.00 0.00 0.00 61 1016.0
20260507125911 58 355 1.0 2.0 0.00 0.00 0.00 62 1016.0
20260507124919 58 5 0.0 2.0 0.00 0.00 0.00 61 1016.1
20260507124124 58 355 0.0 3.0 0.00 0.00 0.00 61 1015.9
20260507123930 58 75 0.0 2.0 0.00 0.00 0.00 61 1016.0
20260507121924 58 63 0.0 4.0 0.00 0.00 0.00 60 1015.8
20260507120909 59 330 1.0 4.0 0.00 0.00 0.00 61 1015.9
20260507115919 59 327 1.0 4.0 0.00 0.00 0.00 62 1015.9
20260507114917 59 84 1.0 2.0 0.00 0.00 0.00 61 1015.8
20260507113916 59 266 1.0 3.0 0.00 0.00 0.00 60 1015.7
20260507112913 59 254 2.0 5.0 0.00 0.00 0.00 61 1015.8
20260507112234 59 91 1.0 3.0 0.00 0.00 0.00 63 1015.9
20260507111933 59 343 1.0 6.0 0.00 0.00 0.00 62 1015.8
20260507105909 58 335 2.0 5.0 0.00 0.00 0.00 63 1016.0
20260507104915 58 326 1.0 5.0 0.00 0.00 0.00 63 1016.1
20260507103903 58 0 1.0 4.0 0.00 0.00 0.00 62 1016.1
20260507102903 58 293 2.0 5.0 0.00 0.00 0.00 62 1016.2
20260507102101 59 155 2.0 6.0 0.00 0.00 0.00 62 1016.2
20260507101923 59 258 2.0 7.0 0.00 0.00 0.00 62 1016.2
20260507095905 59 226 4.0 8.0 0.00 0.00 0.00 63 1016.1
20260507094911 59 242 1.0 6.0 0.00 0.00 0.00 63 1016.2
20260507093911 58 189 2.0 8.0 0.00 0.00 0.00 64 1016.1
20260507092909 60 223 3.0 7.0 0.00 0.00 0.00 65 1016.0
20260507092355 58 178 2.0 7.0 0.00 0.00 0.00 68 1015.9
20260507091952 60 160 2.0 8.0 0.00 0.00 0.00 64 1016.1
20260507085905 58 116 2.0 5.0 0.00 0.00 0.00 70 1015.9
20260507085831 53 125 0.0 2.0 0.00 0.00 0.00 82 1015.7
20260507084930 57 161 3.0 5.0 0.00 0.00 0.00 72 1015.6
20260507084131 56 131 2.0 6.0 0.00 0.00 0.00 76 1015.8
20260507083033 53 134 2.0 4.0 0.00 0.00 0.00 80 1015.7
20260507082029 53 121 1.0 4.0 0.00 0.00 0.00 81 1015.6
20260507080821 53 125 1.0 2.0 0.00 0.00 0.00 84 1015.7
20260507074907 52 125 0.0 3.0 0.00 0.00 0.00 86 1015.6
20260507074140 51 61 1.0 4.0 0.00 0.00 0.00 87 1015.4
20260507073926 52 61 0.0 3.0 0.00 0.00 0.00 87 1015.5
20260507071908 51 61 1.0 4.0 0.00 0.00 0.00 88 1015.4
20260507070859 50 61 1.0 2.0 0.00 0.00 0.00 89 1015.3
20260507065857 50 61 1.0 4.0 0.00 0.00 0.00 89 1015.2
20260507064855 50 61 1.0 4.0 0.00 0.00 0.00 88 1015.4
20260507063900 50 61 0.0 4.0 0.00 0.00 0.00 88 1015.4
20260507062907 49 61 1.0 3.0 0.00 0.00 0.00 89 1015.3